Location: Jackson Park
(37.2862°N, 79.9123°W)
Time: 21:55:23
(UTC+00:00)

Transit 4A - Pass Details

Date: 19 May 2026
Orbit: 861 x 980 km, 66.8° (Epoch: 5 June)

Event Time Altitude Azimuth Distance (km) Brightness Sun altitude
Rises 21:42:47 0° 329° (NNW) 3,688 11.5 30.2°
Reaches altitude 10° 21:45:23 10° 327° (NNW) 2,736 10.9 29.7°
Maximum altitude 21:51:44 67° 247° (WSW) 1,049 9.1 28.4°
Drops below altitude 10° 21:57:57 10° 165° (SSE) 2,680 10.2 27.2°
Sets 22:00:29 0° 163° (SSE) 3,607 10.8 26.7°
